• In Belarus
  • List of Countries
  • For 7 days
  • Water Temperature
  • Satellite Maps
  • Weather Map
  • Weather Widgets
  • user-avatar
    Login

    Hourly Weather Brisbane

    Today, 23 October, Monday

    Time Temperature Precipitation Wind Pressure Humidity
    00:00 +17°C° 0.5 mm 2 mps 759 mmHg 86%
    01:00 +18°C° 0.5 mm 1 mps 759 mmHg 87%
    02:00 +18°C° 0.6 mm 1 mps 759 mmHg 88%
    03:00 +16°C° 0.6 mm 1 mps 759 mmHg 89%
    04:00 +16°C° 0 mm 1 mps 758 mmHg 89%
    05:00 +18°C° 0.5 mm 1 mps 759 mmHg 86%
    06:00 +19°C° 0.5 mm 1 mps 759 mmHg 82%
    07:00 +18°C° 0.5 mm 0 mps 759 mmHg 79%
    08:00 +22°C° 0.7 mm 1 mps 759 mmHg 73%
    09:00 +23°C° 0.7 mm 1 mps 759 mmHg 67%
    10:00 +26°C° 0 mm 1 mps 760 mmHg 59%
    11:00 +26°C° 0.7 mm 1 mps 760 mmHg 58%
    12:00 +26°C° 0.7 mm 2 mps 759 mmHg 56%
    13:00 +26°C° 0.7 mm 2 mps 759 mmHg 54%
    14:00 +25°C° 0.9 mm 2 mps 759 mmHg 59%
    15:00 +24°C° 0.9 mm 2 mps 759 mmHg 64%
    16:00 +23°C° 0 mm 2 mps 760 mmHg 70%
    17:00 +21°C° 0.9 mm 2 mps 760 mmHg 74%
    18:00 +20°C° 0.9 mm 2 mps 761 mmHg 78%
    19:00 +18°C° 0.9 mm 2 mps 761 mmHg 81%
    20:00 +18°C° 0.2 mm 2 mps 761 mmHg 82%
    21:00 +19°C° 0.2 mm 1 mps 762 mmHg 83%
    22:00 +19°C° 0.2 mm 1 mps 762 mmHg 84%
    23:00 +18°C° 0.6 mm 1 mps 762 mmHg 85%

    Tomorrow, 24 October, Tuesday

    Time Temperature Precipitation Wind Pressure Humidity
    00:00 +18°C° 0.6 mm 1 mps 762 mmHg 87%
    01:00 +18°C° 0.6 mm 1 mps 762 mmHg 88%
    02:00 +16°C° 0.5 mm 1 mps 762 mmHg 89%
    03:00 +16°C° 0.5 mm 1 mps 762 mmHg 90%
    04:00 +16°C° 0.5 mm 1 mps 762 mmHg 90%
    05:00 +18°C° 0 mm 1 mps 763 mmHg 87%
    06:00 +19°C° 0 mm 1 mps 763 mmHg 84%
    07:00 +20°C° 0 mm 1 mps 764 mmHg 81%
    08:00 +22°C° 0 mm 1 mps 764 mmHg 71%
    09:00 +24°C° 0 mm 2 mps 764 mmHg 61%
    10:00 +26°C° 0 mm 2 mps 764 mmHg 50%
    11:00 +27°C° 0 mm 2 mps 763 mmHg 48%
    12:00 +27°C° 0 mm 2 mps 763 mmHg 46%
    13:00 +28°C° 0 mm 3 mps 762 mmHg 45%
    14:00 +27°C° 0 mm 3 mps 762 mmHg 47%
    15:00 +27°C° 0 mm 3 mps 762 mmHg 50%
    16:00 +26°C° 0 mm 3 mps 761 mmHg 52%
    17:00 +24°C° 0 mm 3 mps 762 mmHg 59%
    18:00 +22°C° 0 mm 3 mps 762 mmHg 66%
    19:00 +20°C° 0 mm 3 mps 762 mmHg 72%
    20:00 +20°C° 0 mm 3 mps 763 mmHg 75%
    21:00 +19°C° 0 mm 2 mps 763 mmHg 78%
    22:00 +19°C° 0 mm 2 mps 764 mmHg 80%
    23:00 +18°C° 0 mm 2 mps 763 mmHg 82%

    Day after tomorrow, 25 October, Wednesday

    Time Temperature Precipitation Wind Pressure Humidity
    00:00 +18°C° 0 mm 2 mps 763 mmHg 84%
    01:00 +17°C° 0 mm 2 mps 763 mmHg 86%
    02:00 +17°C° 0 mm 2 mps 763 mmHg 87%
    03:00 +17°C° 0 mm 2 mps 762 mmHg 88%
    04:00 +16°C° 0 mm 2 mps 762 mmHg 89%
    05:00 +18°C° 0 mm 2 mps 762 mmHg 83%
    06:00 +19°C° 0 mm 2 mps 763 mmHg 78%
    07:00 +20°C° 0 mm 2 mps 763 mmHg 73%
    08:00 +22°C° 0 mm 3 mps 763 mmHg 63%
    09:00 +26°C° 0 mm 3 mps 762 mmHg 53%
    10:00 +29°C° 0 mm 3 mps 762 mmHg 44%
    11:00 +30°C° 0 mm 3 mps 761 mmHg 41%
    12:00 +32°C° 0 mm 4 mps 761 mmHg 38%
    13:00 +33°C° 0 mm 4 mps 760 mmHg 35%
    14:00 +32°C° 0 mm 4 mps 759 mmHg 37%
    15:00 +32°C° 0 mm 5 mps 759 mmHg 40%
    16:00 +30°C° 0 mm 5 mps 758 mmHg 43%
    17:00 +28°C° 0 mm 5 mps 759 mmHg 51%
    18:00 +26°C° 0 mm 5 mps 759 mmHg 59%
    19:00 +23°C° 0 mm 6 mps 759 mmHg 67%
    20:00 +23°C° 0 mm 5 mps 759 mmHg 69%
    21:00 +22°C° 0 mm 5 mps 760 mmHg 71%
    22:00 +22°C° 0 mm 5 mps 760 mmHg 73%
    23:00 +21°C° 0 mm 5 mps 759 mmHg 73%

    26 October, Thursday

    Time Temperature Precipitation Wind Pressure Humidity
    00:00 +21°C° 0 mm 4 mps 759 mmHg 73%
    01:00 +20°C° 0 mm 4 mps 759 mmHg 74%
    02:00 +21°C° 0 mm 4 mps 758 mmHg 72%
    03:00 +21°C° 0 mm 4 mps 758 mmHg 70%
    04:00 +21°C° 0 mm 4 mps 757 mmHg 69%
    05:00 +22°C° 0 mm 4 mps 757 mmHg 66%
    06:00 +23°C° 0 mm 5 mps 758 mmHg 63%
    07:00 +25°C° 0 mm 5 mps 758 mmHg 60%
    08:00 +27°C° 0 mm 5 mps 757 mmHg 54%
    09:00 +29°C° 0 mm 5 mps 757 mmHg 48%
    10:00 +32°C° 0 mm 5 mps 757 mmHg 42%
    11:00 +34°C° 0 mm 5 mps 756 mmHg 38%
    12:00 +35°C° 0 mm 6 mps 755 mmHg 35%
    13:00 +38°C° 0 mm 6 mps 754 mmHg 31%
    14:00 +36°C° 0.1 mm 6 mps 754 mmHg 35%
    15:00 +35°C° 0.1 mm 6 mps 753 mmHg 38%
    16:00 +34°C° 0.1 mm 6 mps 753 mmHg 41%
    17:00 +32°C° 0.4 mm 6 mps 753 mmHg 48%
    18:00 +29°C° 0.4 mm 5 mps 753 mmHg 54%
    19:00 +27°C° 0.4 mm 5 mps 754 mmHg 60%
    20:00 +26°C° 0 mm 5 mps 754 mmHg 62%
    21:00 +25°C° 0 mm 5 mps 754 mmHg 64%
    22:00 +23°C° 0 mm 5 mps 755 mmHg 66%
    23:00 +23°C° 0 mm 4 mps 755 mmHg 67%

    27 October, Friday

    Time Temperature Precipitation Wind Pressure Humidity
    00:00 +22°C° 0 mm 4 mps 754 mmHg 68%
    01:00 +21°C° 0 mm 3 mps 754 mmHg 69%
    02:00 +21°C° 0 mm 3 mps 754 mmHg 67%
    03:00 +20°C° 0 mm 3 mps 755 mmHg 65%
    04:00 +20°C° 0 mm 3 mps 755 mmHg 63%
    05:00 +21°C° 0 mm 3 mps 755 mmHg 58%
    06:00 +22°C° 0 mm 3 mps 756 mmHg 54%
    07:00 +24°C° 0 mm 2 mps 756 mmHg 50%
    08:00 +27°C° 0 mm 2 mps 756 mmHg 43%
    09:00 +29°C° 0 mm 2 mps 757 mmHg 37%
    10:00 +32°C° 0 mm 2 mps 757 mmHg 31%
    11:00 +33°C° 0 mm 3 mps 756 mmHg 30%
    12:00 +34°C° 0 mm 3 mps 756 mmHg 29%
    13:00 +34°C° 0 mm 4 mps 755 mmHg 29%
    14:00 +33°C° 0 mm 4 mps 755 mmHg 36%
    15:00 +32°C° 0 mm 4 mps 755 mmHg 43%
    16:00 +29°C° 0 mm 5 mps 755 mmHg 51%
    17:00 +27°C° 0 mm 4 mps 756 mmHg 61%
    18:00 +25°C° 0 mm 4 mps 757 mmHg 71%
    19:00 +22°C° 0 mm 4 mps 758 mmHg 81%
    20:00 +22°C° 0 mm 3 mps 758 mmHg 83%
    21:00 +21°C° 0 mm 2 mps 759 mmHg 84%
    22:00 +21°C° 0 mm 2 mps 759 mmHg 86%
    23:00 +21°C° 0 mm 2 mps 759 mmHg 87%

    28 October, Saturday

    Time Temperature Precipitation Wind Pressure Humidity
    00:00 +22°C° 0 mm 1 mps 759 mmHg 88%
    01:00 +21°C° 0 mm 1 mps 758 mmHg 88%
    02:00 +21°C° 0 mm 1 mps 759 mmHg 89%
    03:00 +21°C° 0 mm 1 mps 759 mmHg 90%
    04:00 +21°C° 0 mm 1 mps 759 mmHg 91%
    05:00 +22°C° 0 mm 1 mps 759 mmHg 86%
    06:00 +23°C° 0 mm 1 mps 760 mmHg 82%
    07:00 +24°C° 0 mm 1 mps 760 mmHg 78%
    08:00 +25°C° 0 mm 1 mps 760 mmHg 72%
    09:00 +27°C° 0 mm 2 mps 760 mmHg 66%
    10:00 +28°C° 0 mm 2 mps 759 mmHg 60%
    11:00 +29°C° 0 mm 2 mps 759 mmHg 58%
    12:00 +30°C° 0 mm 3 mps 758 mmHg 56%
    13:00 +30°C° 0 mm 3 mps 757 mmHg 54%
    14:00 +30°C° 0 mm 3 mps 757 mmHg 56%
    15:00 +30°C° 0 mm 4 mps 757 mmHg 58%
    16:00 +30°C° 0 mm 4 mps 757 mmHg 59%
    17:00 +28°C° 0 mm 4 mps 757 mmHg 68%
    18:00 +26°C° 0 mm 4 mps 758 mmHg 76%
    19:00 +25°C° 0 mm 4 mps 758 mmHg 85%
    20:00 +23°C° 0 mm 4 mps 759 mmHg 87%
    21:00 +24°C° 0 mm 3 mps 759 mmHg 89%
    22:00 +24°C° 0 mm 3 mps 759 mmHg 92%
    23:00 +24°C° 0 mm 3 mps 758 mmHg 92%

    29 October, Sunday

    Time Temperature Precipitation Wind Pressure Humidity
    00:00 +24°C° 0 mm 2 mps 758 mmHg 92%
    01:00 +24°C° 0 mm 2 mps 758 mmHg 92%
    02:00 +24°C° 0.1 mm 2 mps 758 mmHg 92%
    03:00 +23°C° 0.1 mm 2 mps 758 mmHg 93%
    04:00 +23°C° 0.1 mm 2 mps 758 mmHg 93%
    05:00 +24°C° 0.1 mm 3 mps 759 mmHg 89%
    06:00 +25°C° 0.1 mm 3 mps 759 mmHg 85%
    07:00 +25°C° 0.1 mm 3 mps 760 mmHg 81%
    08:00 +28°C° 0 mm 3 mps 759 mmHg 70%
    09:00 +30°C° 0 mm 3 mps 759 mmHg 60%
    10:00 +33°C° 0 mm 3 mps 759 mmHg 50%
    11:00 +34°C° 0 mm 3 mps 758 mmHg 46%
    12:00 +36°C° 0 mm 4 mps 757 mmHg 42%
    13:00 +37°C° 0 mm 4 mps 756 mmHg 38%
    14:00 +35°C° 0 mm 5 mps 756 mmHg 43%
    15:00 +34°C° 0 mm 5 mps 756 mmHg 48%
    16:00 +33°C° 0 mm 5 mps 756 mmHg 53%
    17:00 +32°C° 0 mm 5 mps 756 mmHg 60%
    18:00 +29°C° 0 mm 5 mps 757 mmHg 67%
    19:00 +28°C° 0 mm 5 mps 757 mmHg 73%
    20:00 +27°C° 0.2 mm 4 mps 757 mmHg 77%
    21:00 +26°C° 0.2 mm 4 mps 758 mmHg 81%
    22:00 +26°C° 0.2 mm 3 mps 758 mmHg 85%
    23:00 +25°C° 0 mm 3 mps 758 mmHg 87%
    Show more